Location: Little Maitland River
(43.8022°N, 81.1549°W)
Time: 00:51:15
(UTC+00:00)

Cosmos 2219 Rocket - Pass Details

Date: 09 December 2025
Orbit: 827 x 845 km, 71.0° (Epoch: 17 January)

Event Time Altitude Azimuth Distance (km) Brightness Sun altitude
Exits shadow 11:28:53 - 340° (NNW) 3,007 4.7 -13.6°
Reaches altitude 10° 11:30:20 10° 343° (NNW) 2,470 4.3 -13.3°
Maximum altitude 11:35:52 53° 60° (ENE) 1,031 2.9 -12.4°
Drops below altitude 10° 11:41:20 10° 137° (SE) 2,443 5.7 -11.5°
Sets 11:43:50 0° 142° (SE) 3,371 6.4 -11.0°
